STARLINK-5020, 55458

Orbit data source: Space-Track

STARLINK-5020, 55458 is a payload satellite owned by SpaceX/Seattle (US) in LEO that was launched on Thu, 02 Feb 2023 UTC via an FALCON 9 launch vehicle from the Air Force Eastern Test Range (AFETR). Payload-class satellites include a variety of spacecraft equipped with specific instruments for various scientific and technological missions. These include communications satellites like Starlink; space stations such as the ISS; scientific satellites like the Hubble; Earth observation satellites from companies like Planet Labs, Umbra, and HawkEye 360; GPS; miniature CubeSats for education and research; and military/defense satellites.

Loading next visibility...
Identifier
55458, 2023-015K
Orbit
LEO
Country
Flag of USUS
Related business
Manufacturer
SpaceX/Seattle
Mission
Operational spacecraft
Bus & Motor
STARLINK, Unknown motor
Mass
305 kg wet, ~290 kg dry
Launch date (UTC)
2023-02-02 (3 years ago)
Launch vehicle
FALCON 9
Launch site
Air Force Eastern Test Range (AFETR)
Object type
Payload
Rocket body
Debris
Shape & HBR
Unknown shape, 10.1 m
Radar Cross Section
Large (>1 m²)

Expand to show TLE details & history
Last TLE update: 9 hours ago

TLE from 9 hours ago
0 STARLINK-5020
1 55458U 23015K   26035.65370803  .00000235  00000-0  32475-4 0  9991
2 55458  43.0019 145.5720 0000784 247.9369 112.1390 15.02533920165783
Epoch: 2026-02-04T15:41Z
TLE epoch observation values (Epoch: 2026-02-04T15:41:20.373Z)
Latitude
-0.00004°
Longitude
135.41988°
Altitude
559.069 km
Speed
7.584 km/s
True Right ascension
09h 42m 17s
True Declination
0° 00' 00"
Sunlit
Object was in full shadow at epoch
Visualization orbit readout
Latitude
Unknown
Longitude
Unknown
Altitude
Unknown
Speed
Unknown
Apparent Right ascension
Unknown
Apparent Declination
Unknown
Sunlit
N/A
Visualization observer readout
Local Sidereal Time
03:04:09
Azimuth
Unknown
Elevation
Unknown
Doppler factor
Unknown
Orbital elements
Apogee altitude
561.554 km
Perigee altitude
560.466 km
Semi-major axis
6,939.147 km
Eccentricity
0.00008
Inclination
43.0019°
RAAN
145.572°
Arg. of periapsis
247.9369°
True anomaly
112.14732°
Mean anomaly
112.139°
Eccentric anomaly
112.14316°
Mean motion
3.75478 °/min
Orbital period
95.88 mins
BSTAR
0.000032475
Loading maneuver chart data...
Computing Atmospheric mass density...
Loading historical data...
Loading historical data...
Loading historical data...
Loading historical data...
Loading historical data...
Loading historical data...
Loading historical data...

Documentation

Showing up to 5 results
|